Regional Weather Roundup
Issued by NWS

Home | Current Version | Previous Version | Text Only | Print | Product List | Glossary On
Versions: 1 2 3 4 5 6 7 8 9 10 11 12 13 14 15 16 17 18 19 20 21 22 23 24 25 26 27 28 29 30 31 32 33 34 35 36 37 38 39 40 41 42 43 44 45 46 47 48 49 50
000
ASUS43 KLMK 261802
RWRKY
KENTUCKY REGIONAL WEATHER ROUNDUP
NATIONAL WEATHER SERVICE LOUISVILLE KY
100 PM EST FRI DEC 26 2014

NOTE "FAIR" INDICATES FEW OR NO CLOUDS BELOW 12,000 FEET
WITH NO SIGNIFICANT WEATHER AND/OR OBSTRUCTIONS TO VISIBILITY.

KYZ001>023-026-027-061>063-070>075-261900-
WESTERN AND SOUTH CENTRAL KENTUCKY

CITY           SKY/WX    TMP DP  RH WIND       PRES   REMARKS
PADUCAH        FAIR      55  41  59 SW14G22   30.20F
HENDERSON      FAIR      54  39  58 SW13      30.18F
OWENSBORO      FAIR      53  40  61 S16       30.20F
HOPKINSVILLE   FAIR      53  38  55 S9        30.22F
BOWLING GREEN  FAIR      55  38  52 SW10      30.26F
GLASGOW        NOT AVBL
$$

KYZ024-025-028>034-038-045-046-053-261900-
NORTH CENTRAL KENTUCKY

CITY           SKY/WX    TMP DP  RH WIND       PRES   REMARKS
LOUISVILLE/SDF FAIR      54  37  52 S10       30.21F
LOUISVILLE/LOU FAIR      52  38  58 S7        30.22F
FORT KNOX      FAIR      51  39  61 S10       30.21F
$$

KYZ035>037-039>044-047>052-055>060-089>105-261900-
NORTHEAST KENTUCKY

CITY           SKY/WX    TMP DP  RH WIND       PRES   REMARKS
LEXINGTON      FAIR      49  38  65 S12       30.24F
COVINGTON      PTSUNNY   49  35  58 SW8       30.20F
FRANKFORT      FAIR      51  37  58 S12       30.23F
$$

KYZ054-064>069-076>088-106>120-261900-
SOUTHEAST KENTUCKY

CITY           SKY/WX    TMP DP  RH WIND       PRES   REMARKS
JACKSON        FAIR      47  34  60 VRB3      30.27F
LONDON         FAIR      50  29  44 SW9       30.28F
SOMERSET       NOT AVBL
MIDDLESBORO    FAIR      50  34  53 S7        30.30F
MONTICELLO     FAIR      54  36  50 SW9       30.31F
$$



USA.gov is the U.S. government's official web portal to all federal, state and local government web resources and services.